Location: Newark
(43.0000°N, 1.6781°W)
Time: 07:30:37
(UTC+00:00)

CAS-4B - Pass Details

Date: 14 December 2022
Orbit: 515 x 531 km, 43.0° (Epoch: 27 January)

Event Time Altitude Azimuth Distance (km) Brightness Sun altitude
Exits shadow 06:16:17 20° 273° (W) 1,270 ? -13.0°
Maximum altitude 06:18:57 59° 198° (SSW) 611 ? -12.5°
Drops below altitude 10° 06:22:58 10° 118° (ESE) 1,775 ? -11.8°
Sets 06:25:13 0° 115° (ESE) 2,666 ? -11.5°
